[[{"header":{"parameterUnit":"m.s-1","parameterCategory":1,"la1":30.2991,"la2":30.254,"lo1":-89.0895,"lo2":-89.0444,"dy":0.0017,"dx":0.0017,"nx":28,"ny":28,"refTime":"2023-08-25T21:00:00:Z","depth":0,"parameterNumber":2,"parameterNumberName":"U-component_of_WINDS"},"data":[0,0,0,0,0,0,0,0,0,0,0,0,0,0,0,0,0,0,0,0,0,0,0,0,0,0,0,0,0,0,0,0,0,0,0,0,0,0,0,0,0,0,0,0,0,0,0,0,0,0,0,0,0,0,0,0,0,0,3.046,3.046,0,3.0487,3.0487,3.0487,3.0404,3.0401,3.0399,3.0396,3.0422,3.0425,3.0428,0,0,0,0,0,0,0,0,0,0,0,0,0,3.0336,3.0338,3.046,3.046,3.046,3.0487,3.0487,3.0488,3.0404,3.0401,3.0398,3.0395,3.0421,3.0425,3.0429,0,0,0,0,0,0,0,0,0,0,0,0,0,3.0379,3.0339,3.0459,3.0422,3.0419,3.0487,3.0487,3.0488,3.0405,3.0401,3.0397,3.0394,3.042,3.0425,3.0429,3.0534,0,0,3.0443,3.0445,0,0,0,0,0,0,0,0,3.0377,3.0384,3.0427,3.0425,3.0421,3.0438,3.0453,3.0503,3.0406,3.041,3.0396,3.0392,3.0431,3.0434,3.0448,3.0535,3.0537,3.0444,3.0447,3.0448,3.045,0,0,0,0,0,0,0,3.0374,3.0382,3.047,3.0428,3.0424,3.0404,3.0406,3.0462,3.0441,3.0409,3.0403,3.0408,3.0428,3.0443,3.0448,3.0537,3.0444,3.0448,3.0451,3.0452,3.0716,3.072,0,0,0,0,0,0,3.0376,3.038,3.0469,3.0471,3.0389,3.0409,3.0411,3.0436,3.0441,3.0438,3.0411,3.0404,3.0437,3.0442,3.0448,3.0574,3.0448,3.0453,3.0455,3.0712,3.0717,3.0722,0,0,0,0,0,0,3.0373,3.0384,3.0468,3.0424,3.0433,3.0415,3.0444,3.0439,3.0454,3.0442,3.0438,3.043,3.0434,3.0442,3.0514,3.0574,3.0455,3.0459,3.0707,3.0714,3.072,3.0825,0,0,0,0,0,0,3.037,3.0384,3.0423,3.0426,3.0436,3.0534,3.0448,3.0442,3.0462,3.0453,3.0459,3.0456,3.0432,3.0508,3.0519,3.0578,3.0463,3.0702,3.071,3.0718,3.0816,3.0834,3.085,0,0,0,0,0,3.0366,3.0451,3.0426,3.0437,3.0485,3.0538,3.0544,3.0515,3.0467,3.0507,3.05,3.0456,3.0565,3.0516,3.0528,3.0589,3.0698,3.0708,3.0717,3.0809,3.0831,3.0849,0,0,0,0,0,0,3.0454,3.045,3.0422,3.051,3.0525,3.0523,3.0572,3.0538,3.0566,3.0556,3.0519,3.0521,3.0601,3.0602,3.0547,3.0693,3.0624,3.0636,3.0689,3.071,3.0727,3.0725,3.0466,0,0,0,0,0,3.0484,3.0528,3.0522,3.06,3.0609,3.059,3.0612,3.0589,3.0602,3.0608,3.0606,3.0621,3.0659,3.0684,3.0718,3.0816,3.0817,3.0864,3.0881,3.0895,3.0906,3.0961,3.0983,3.0753,3.0753,3.0753,0,0,3.0546,3.0549,3.0579,3.0618,3.0627,3.0674,3.0596,3.0647,3.0682,3.0615,3.0685,3.0685,3.0699,3.0786,3.0824,3.0789,3.097,3.0907,3.0918,3.0922,3.0973,3.0995,3.1015,3.076,3.0759,3.0758,0,0,3.0683,3.0689,3.0757,3.0768,3.0783,3.0771,3.0787,3.0791,3.0789,3.0859,3.0811,3.0851,3.0917,3.093,3.0945,3.1092,3.1053,3.1104,3.1191,3.1246,3.1264,3.128,3.1335,3.1354,3.1115,3.1115,3.1115,0,3.0758,3.0827,3.0795,3.0852,3.0872,3.0816,3.0885,3.0897,3.0922,3.0938,3.0898,3.0982,3.0987,3.1078,3.1114,3.1127,3.1147,3.1103,3.1264,3.1279,3.1294,3.1346,3.1366,3.1121,3.1121,3.112,3.1119,0,3.0919,3.0968,3.1021,3.1049,3.1075,3.1137,3.1116,3.1146,3.1122,3.1114,3.1187,3.1192,3.1228,3.1247,3.1222,3.1336,3.1314,3.127,3.12,3.1323,3.1371,3.139,3.113,3.1128,3.1126,3.1125,0,0,3.1111,3.1124,3.1144,3.1158,3.1172,3.1209,3.127,3.1307,3.1334,3.1354,3.1406,3.1464,3.1425,3.1442,3.1419,3.1467,3.1587,3.1417,3.1417,3.145,3.1715,3.1749,3.1773,3.1561,3.1564,3.1567,3.1714,0,3.1248,3.1354,3.1329,3.1434,3.148,3.1429,3.1482,3.1498,3.1493,3.1531,3.1525,3.1568,3.1511,3.1522,3.1567,3.1562,3.1639,3.1551,3.161,3.1612,3.1609,3.1797,3.1833,3.1972,3.1733,3.1736,3.1738,0,3.1421,3.1451,3.1561,3.1571,3.159,3.1638,3.1672,3.1709,3.1726,3.1719,3.1741,3.171,3.1772,3.1701,3.1787,3.1728,3.175,3.1752,3.1757,3.1762,3.1683,3.181,3.2015,3.2037,3.1767,3.1765,3.1763,0,3.1554,3.162,3.1696,3.1709,3.1722,3.1758,3.1765,3.1778,3.1803,3.1832,3.1848,3.1884,3.1904,3.1932,3.1912,3.1862,3.2002,3.1929,3.2,3.2001,3.2032,3.2031,3.2246,3.2044,3.2044,3.2043,3.2043,0,3.171,3.178,3.1756,3.1803,3.188,3.1852,3.1929,3.193,3.1944,3.199,3.1947,3.1992,3.1962,3.2004,3.1989,3.2064,3.2073,3.207,3.2065,3.2075,3.2076,3.209,3.208,3.2049,3.2048,3.2047,3.2046,0,3.1871,3.1857,3.1937,3.1944,3.1948,3.2005,3.2011,3.2055,3.2048,3.2108,3.212,3.2109,3.2157,3.214,3.219,3.218,3.2277,3.2259,3.2272,3.2268,3.2341,3.2335,3.2574,3.2605,3.2382,3.2384,3.2386,0,3.1972,3.2025,3.204,3.2069,3.208,3.2126,3.2152,3.2127,3.2156,3.2181,3.2223,3.2268,3.2302,3.2382,3.2379,3.2418,3.2402,3.2483,3.2407,3.2417,3.2406,3.2404,3.2411,3.2498,3.2501,3.2503,3.2505,0,3.2155,3.2147,3.2186,3.2225,3.2257,3.2286,3.231,3.2337,3.2313,3.2348,3.2398,3.2425,3.2479,3.2525,3.2561,3.2569,3.2534,3.2529,3.2548,3.2559,3.2565,3.2565,3.2315,3.2523,3.2521,3.252,3.2519,3.2518,3.229,3.2337,3.2355,3.2402,3.2418,3.2443,3.2486,3.2486,3.2527,3.257,3.2552,3.2611,3.2629,3.2675,3.2688,3.2734,3.2702,3.2729,3.2736,3.2744,3.2754,3.2557,3.274,3.2739,3.2739,3.2738,3.2738,0,3.2473,3.2483,3.2526,3.2564,3.2601,3.2566,3.2593,3.2626,3.2678,3.2699,3.2735,3.2794,3.284,3.2841,3.2884,3.292,3.2906,3.2933,3.293,3.2933,3.2778,3.2759,3.2944,3.2944,3.2944,3.2944,3.2944,3.2944,3.2572,3.265,3.2645,3.2731,3.274,3.2798,3.2817,3.2841,3.2857,3.2926,3.2964,3.2965,3.2979,3.3023,3.3063,3.3063,3.3081,3.3115,3.3109,3.2964,3.2944,3.2924,3.2906,3.3119,3.3119,3.326,3.3261,3.3262]},{"header":{"parameterUnit":"m.s-1","parameterCategory":1,"la1":30.2991,"la2":30.254,"lo1":-89.0895,"lo2":-89.0444,"dy":0.0017,"dx":0.0017,"nx":28,"ny":28,"refTime":"2023-08-25T21:00:00:Z","depth":0,"parameterNumber":3,"parameterNumberName":"V-component_of_WINDS"},"data":[0,0,0,0,0,0,0,0,0,0,0,0,0,0,0,0,0,0,0,0,0,0,0,0,0,0,0,0,0,0,0,0,0,0,0,0,0,0,0,0,0,0,0,0,0,0,0,0,0,0,0,0,0,0,0,0,0,0,-2.1793,-2.1793,0,-2.1763,-2.1763,-2.1762,-2.17,-2.1699,-2.1698,-2.1697,-2.1664,-2.1664,-2.1664,0,0,0,0,0,0,0,0,0,0,0,0,0,-2.1797,-2.1798,-2.1793,-2.1793,-2.1793,-2.1763,-2.1763,-2.1762,-2.17,-2.1699,-2.1697,-2.1696,-2.1664,-2.1664,-2.1665,0,0,0,0,0,0,0,0,0,0,0,0,0,-2.1784,-2.1798,-2.1793,-2.1758,-2.1755,-2.1763,-2.1763,-2.1762,-2.1701,-2.1699,-2.1697,-2.1695,-2.1664,-2.1664,-2.1665,-2.1704,0,0,-2.1666,-2.1666,0,0,0,0,0,0,0,0,-2.1785,-2.1784,-2.1764,-2.1761,-2.1757,-2.1734,-2.1752,-2.1743,-2.1701,-2.1721,-2.1697,-2.1694,-2.1689,-2.1687,-2.1685,-2.1703,-2.1701,-2.1666,-2.1666,-2.1666,-2.1666,0,0,0,0,0,0,0,-2.1786,-2.1785,-2.1781,-2.1764,-2.1759,-2.1744,-2.174,-2.175,-2.1716,-2.1719,-2.1715,-2.1712,-2.1686,-2.1685,-2.1684,-2.1701,-2.1666,-2.1666,-2.1666,-2.1667,-2.1751,-2.1753,0,0,0,0,0,0,-2.1792,-2.1786,-2.1782,-2.178,-2.1767,-2.1745,-2.1741,-2.1743,-2.1715,-2.1709,-2.1714,-2.1709,-2.1685,-2.1683,-2.1682,-2.1728,-2.1666,-2.1667,-2.1667,-2.1749,-2.1752,-2.1754,0,0,0,0,0,0,-2.1793,-2.1792,-2.1783,-2.1782,-2.178,-2.1747,-2.175,-2.1743,-2.1742,-2.1711,-2.1705,-2.1719,-2.1684,-2.1682,-2.17,-2.1726,-2.1667,-2.1667,-2.1747,-2.175,-2.1753,-2.182,0,0,0,0,0,0,-2.1793,-2.1793,-2.1808,-2.1783,-2.178,-2.1802,-2.1751,-2.1744,-2.1743,-2.1737,-2.1714,-2.1708,-2.1682,-2.17,-2.17,-2.1726,-2.1668,-2.1744,-2.1748,-2.1752,-2.1815,-2.1824,-2.1833,0,0,0,0,0,-2.1793,-2.1827,-2.1809,-2.1808,-2.1798,-2.1803,-2.1801,-2.1771,-2.1745,-2.176,-2.1741,-2.1709,-2.1723,-2.1702,-2.1702,-2.1728,-2.1743,-2.1747,-2.1752,-2.1811,-2.1823,-2.1832,0,0,0,0,0,0,-2.1854,-2.1823,-2.1802,-2.1829,-2.1819,-2.1793,-2.181,-2.1784,-2.1781,-2.1775,-2.1737,-2.1732,-2.1756,-2.1743,-2.172,-2.1766,-2.1728,-2.1733,-2.1773,-2.1784,-2.1793,-2.1795,-2.1668,0,0,0,0,0,-2.1871,-2.1878,-2.185,-2.1876,-2.1873,-2.1843,-2.1844,-2.1821,-2.1809,-2.1805,-2.1786,-2.1776,-2.1778,-2.178,-2.178,-2.1813,-2.1808,-2.1831,-2.184,-2.1848,-2.1852,-2.187,-2.188,-2.1769,-2.1769,-2.1768,0,0,-2.1905,-2.1889,-2.1896,-2.1888,-2.1878,-2.1887,-2.1839,-2.185,-2.1856,-2.1806,-2.1822,-2.1809,-2.1795,-2.1821,-2.1831,-2.1811,-2.1882,-2.1853,-2.186,-2.186,-2.1876,-2.1886,-2.1896,-2.1772,-2.1771,-2.1771,0,0,-2.1972,-2.196,-2.1981,-2.1973,-2.1959,-2.1939,-2.1944,-2.1922,-2.1911,-2.1927,-2.1891,-2.1897,-2.1901,-2.1894,-2.189,-2.1957,-2.1928,-2.1958,-2.2004,-2.2022,-2.2031,-2.2039,-2.2063,-2.2072,-2.1962,-2.1962,-2.1963,0,-2.2016,-2.2028,-2.1995,-2.2009,-2.2008,-2.1964,-2.1986,-2.1979,-2.1965,-2.1965,-2.1943,-2.1949,-2.1936,-2.1961,-2.1977,-2.1976,-2.1981,-2.196,-2.2032,-2.204,-2.2046,-2.2069,-2.2079,-2.1966,-2.1966,-2.1965,-2.1965,0,-2.2083,-2.2092,-2.2111,-2.2101,-2.2101,-2.2118,-2.2089,-2.2094,-2.2072,-2.2054,-2.2072,-2.2056,-2.2053,-2.2057,-2.2034,-2.2078,-2.2067,-2.2039,-2.2,-2.2061,-2.2082,-2.2091,-2.1972,-2.197,-2.1969,-2.1968,0,0,-2.2186,-2.2159,-2.2167,-2.2162,-2.2145,-2.2151,-2.2167,-2.2165,-2.217,-2.2163,-2.2176,-2.2182,-2.2157,-2.2153,-2.213,-2.2146,-2.2201,-2.2116,-2.2115,-2.2133,-2.225,-2.2271,-2.2282,-2.2182,-2.2184,-2.2185,-2.2251,0,-2.2249,-2.2276,-2.2248,-2.228,-2.2289,-2.2249,-2.2263,-2.2254,-2.2239,-2.2244,-2.2226,-2.2232,-2.2198,-2.2196,-2.2209,-2.2191,-2.2224,-2.2186,-2.2194,-2.2195,-2.2199,-2.2292,-2.2314,-2.2377,-2.2259,-2.226,-2.2261,0,-2.2326,-2.2324,-2.2358,-2.234,-2.2342,-2.2355,-2.2352,-2.2357,-2.2347,-2.2335,-2.2332,-2.2305,-2.232,-2.2282,-2.2303,-2.2278,-2.228,-2.2272,-2.2274,-2.2273,-2.2232,-2.2295,-2.2397,-2.2407,-2.2274,-2.2273,-2.2272,0,-2.2399,-2.2405,-2.2426,-2.2423,-2.2402,-2.2413,-2.2405,-2.2392,-2.2393,-2.2391,-2.2391,-2.239,-2.239,-2.239,-2.2363,-2.2338,-2.2388,-2.2348,-2.2379,-2.238,-2.2391,-2.239,-2.2495,-2.2391,-2.2391,-2.2391,-2.2391,0,-2.2473,-2.2495,-2.2459,-2.2472,-2.2496,-2.2464,-2.2489,-2.2477,-2.2466,-2.2477,-2.2442,-2.2452,-2.2416,-2.2423,-2.2403,-2.2424,-2.2423,-2.2414,-2.2409,-2.2418,-2.2419,-2.2418,-2.2413,-2.2394,-2.2393,-2.2393,-2.2392,0,-2.2558,-2.2535,-2.2555,-2.2535,-2.253,-2.2549,-2.2531,-2.2543,-2.2526,-2.2539,-2.2541,-2.2514,-2.2521,-2.2494,-2.2496,-2.2482,-2.2514,-2.2501,-2.2518,-2.2514,-2.2547,-2.2544,-2.2654,-2.2668,-2.2556,-2.2557,-2.2558,0,-2.2607,-2.2623,-2.2605,-2.261,-2.2604,-2.2612,-2.2614,-2.2584,-2.2587,-2.2577,-2.259,-2.2594,-2.2595,-2.2607,-2.2588,-2.259,-2.2576,-2.2615,-2.2576,-2.2586,-2.2578,-2.2578,-2.258,-2.2623,-2.2624,-2.2625,-2.2626,0,-2.2696,-2.2684,-2.2688,-2.2689,-2.2692,-2.2691,-2.2687,-2.2693,-2.2661,-2.2666,-2.2673,-2.2674,-2.2677,-2.2681,-2.2679,-2.2671,-2.2644,-2.2639,-2.2646,-2.2656,-2.2666,-2.2662,-2.2541,-2.2636,-2.2635,-2.2635,-2.2634,-2.2634,-2.2765,-2.2779,-2.2769,-2.2775,-2.2769,-2.2767,-2.2778,-2.2763,-2.2768,-2.2768,-2.275,-2.2761,-2.2751,-2.2746,-2.274,-2.2749,-2.273,-2.2741,-2.2744,-2.2747,-2.2753,-2.2665,-2.2748,-2.2748,-2.2747,-2.2747,-2.2747,0,-2.2853,-2.2846,-2.2852,-2.2848,-2.2854,-2.2829,-2.2824,-2.283,-2.284,-2.2834,-2.2836,-2.2845,-2.285,-2.2832,-2.2834,-2.2844,-2.2832,-2.2846,-2.2845,-2.2844,-2.2768,-2.2762,-2.2856,-2.2856,-2.2856,-2.2856,-2.2856,-2.2856,-2.29,-2.2922,-2.2909,-2.2929,-2.292,-2.2931,-2.2931,-2.2929,-2.2924,-2.2936,-2.294,-2.2929,-2.2918,-2.292,-2.2923,-2.2918,-2.292,-2.2939,-2.293,-2.2859,-2.2849,-2.2839,-2.2833,-2.294,-2.294,-2.3004,-2.3005,-2.3005]}]]